| time (UTC) | temp F | wind direction | speed MPH | gust MPH | rain 1hr in | rain 24hr in | rain mn in | humidity % | barometer mb |
| 20260505081123 | 49 | 0.0 | 0.0 | 0.00 | 0.00 | 0.00 | 80 | 1012.4 | |
| 20260505080124 | 49 | 0.0 | 0.0 | 0.00 | 0.00 | 0.00 | 79 | 1012.4 | |
| 20260505075125 | 49 | 0.0 | 0.0 | 0.00 | 0.00 | 0.00 | 79 | 1012.3 | |
| 20260505074120 | 50 | 0.0 | 0.0 | 0.00 | 0.00 | 0.00 | 77 | 1012.6 | |
| 20260505073136 | 51 | 0.0 | 0.0 | 0.00 | 0.00 | 0.00 | 75 | 1012.4 | |
| 20260505072117 | 51 | 0.0 | 0.0 | 0.00 | 0.00 | 0.00 | 74 | 1012.5 | |
| 20260505071124 | 51 | 0.0 | 0.0 | 0.00 | 0.00 | 0.00 | 74 | 1012.5 | |
| 20260505070125 | 52 | 0.0 | 0.0 | 0.00 | 0.00 | 0.00 | 72 | 1012.3 | |
| 20260505065116 | 52 | 0.0 | 0.0 | 0.00 | 0.00 | 0.00 | 71 | 1012.6 | |
| 20260505064116 | 53 | 0.0 | 0.0 | 0.00 | 0.00 | 0.00 | 70 | 1012.3 | |
| 20260505063117 | 53 | 0.0 | 0.0 | 0.00 | 0.00 | 0.00 | 69 | 1012.6 | |
| 20260505062138 | 53 | 0.0 | 1.0 | 0.00 | 0.00 | 0.00 | 68 | 1012.6 | |
| 20260505061125 | 53 | 109 | 0.0 | 2.0 | 0.00 | 0.00 | 0.00 | 68 | 1012.6 |
| 20260505060146 | 53 | 119 | 0.0 | 1.0 | 0.00 | 0.00 | 0.00 | 69 | 1012.8 |
| 20260505055116 | 53 | 87 | 2.0 | 3.0 | 0.00 | 0.00 | 0.00 | 68 | 1012.9 |
| 20260505054123 | 54 | 0.0 | 0.0 | 0.00 | 0.00 | 0.00 | 67 | 1012.8 | |
| 20260505053139 | 54 | 100 | 0.0 | 1.0 | 0.00 | 0.00 | 0.00 | 66 | 1012.9 |
| 20260505052119 | 55 | 0.0 | 1.0 | 0.00 | 0.00 | 0.00 | 64 | 1013.1 | |
| 20260505051126 | 55 | 91 | 1.0 | 3.0 | 0.00 | 0.00 | 0.00 | 63 | 1013.0 |
| 20260505050123 | 55 | 96 | 1.0 | 2.0 | 0.00 | 0.00 | 0.00 | 64 | 1013.1 |
| 20260505041127 | 56 | 87 | 1.0 | 3.0 | 0.00 | 0.00 | 0.00 | 61 | 1013.1 |
| 20260505040117 | 56 | 98 | 0.0 | 1.0 | 0.00 | 0.00 | 0.00 | 62 | 1013.3 |
| 20260505035120 | 55 | 91 | 1.0 | 4.0 | 0.00 | 0.00 | 0.00 | 63 | 1013.3 |
| 20260505034126 | 55 | 100 | 0.0 | 2.0 | 0.00 | 0.00 | 0.00 | 64 | 1013.1 |
| 20260505033120 | 56 | 99 | 0.0 | 2.0 | 0.00 | 0.00 | 0.00 | 63 | 1013.2 |
| 20260505032141 | 55 | 98 | 0.0 | 1.0 | 0.00 | 0.00 | 0.00 | 63 | 1013.2 |
| 20260505031123 | 55 | 97 | 2.0 | 2.0 | 0.00 | 0.00 | 0.00 | 63 | 1013.4 |
| 20260505030139 | 55 | 97 | 1.0 | 2.0 | 0.00 | 0.00 | 0.00 | 63 | 1013.2 |
| 20260505025118 | 55 | 98 | 0.0 | 1.0 | 0.00 | 0.00 | 0.00 | 63 | 1013.1 |
| 20260505024124 | 55 | 99 | 1.0 | 1.0 | 0.00 | 0.00 | 0.00 | 63 | 1013.2 |
| 20260505023120 | 55 | 0.0 | 1.0 | 0.00 | 0.00 | 0.00 | 63 | 1013.3 | |
| 20260505022142 | 55 | 0.0 | 0.0 | 0.00 | 0.00 | 0.00 | 63 | 1013.2 | |
| 20260505021124 | 55 | 100 | 0.0 | 1.0 | 0.00 | 0.00 | 0.00 | 62 | 1013.2 |
| 20260505020121 | 56 | 96 | 0.0 | 2.0 | 0.00 | 0.00 | 0.00 | 60 | 1013.1 |
| 20260505015121 | 56 | 85 | 2.0 | 4.0 | 0.00 | 0.00 | 0.00 | 59 | 1013.2 |
| 20260505014120 | 56 | 95 | 1.0 | 2.0 | 0.00 | 0.00 | 0.00 | 58 | 1013.1 |
| 20260505013121 | 57 | 96 | 1.0 | 3.0 | 0.00 | 0.00 | 0.00 | 57 | 1013.1 |
| 20260505012123 | 57 | 94 | 1.0 | 2.0 | 0.00 | 0.00 | 0.00 | 56 | 1012.8 |
| 20260505011131 | 58 | 107 | 0.0 | 1.0 | 0.00 | 0.00 | 0.00 | 55 | 1012.7 |
| 20260505010141 | 58 | 97 | 1.0 | 3.0 | 0.00 | 0.00 | 0.00 | 54 | 1012.7 |
| 20260505005120 | 59 | 0.0 | 1.0 | 0.00 | 0.00 | 0.00 | 53 | 1012.4 | |
| 20260505004121 | 59 | 82 | 2.0 | 4.0 | 0.00 | 0.00 | 0.00 | 52 | 1012.1 |
| 20260505003122 | 59 | 99 | 1.0 | 3.0 | 0.00 | 0.00 | 0.00 | 51 | 1012.1 |
| 20260505002125 | 60 | 95 | 2.0 | 3.0 | 0.00 | 0.00 | 0.00 | 51 | 1012.2 |
| 20260505001117 | 60 | 95 | 2.0 | 6.0 | 0.00 | 0.00 | 0.00 | 50 | 1011.8 |
| 20260505000123 | 61 | 8 | 3.0 | 6.0 | 0.00 | 0.00 | 0.00 | 49 | 1011.7 |
| 20260504235122 | 61 | 71 | 3.0 | 6.0 | 0.00 | 0.00 | 0.00 | 48 | 1011.4 |
| 20260504234123 | 62 | 92 | 2.0 | 3.0 | 0.00 | 0.00 | 0.00 | 47 | 1011.3 |
| 20260504233118 | 62 | 24 | 2.0 | 4.0 | 0.00 | 0.00 | 0.00 | 46 | 1011.1 |
| 20260504232120 | 63 | 97 | 2.0 | 4.0 | 0.00 | 0.00 | 0.00 | 45 | 1011.0 |
| 20260504231121 | 63 | 55 | 3.0 | 4.0 | 0.00 | 0.00 | 0.00 | 45 | 1010.9 |
| 20260504230120 | 64 | 85 | 2.0 | 4.0 | 0.00 | 0.00 | 0.00 | 44 | 1010.7 |
| 20260504225123 | 64 | 90 | 2.0 | 6.0 | 0.00 | 0.00 | 0.00 | 43 | 1010.7 |
| 20260504224123 | 66 | 69 | 2.0 | 7.0 | 0.00 | 0.00 | 0.00 | 41 | 1010.5 |
| 20260504223119 | 68 | 77 | 2.0 | 8.0 | 0.00 | 0.00 | 0.00 | 32 | 1010.4 |
| 20260504222116 | 68 | 87 | 2.0 | 4.0 | 0.00 | 0.00 | 0.00 | 32 | 1010.4 |
| 20260504221122 | 69 | 93 | 1.0 | 7.0 | 0.00 | 0.00 | 0.00 | 31 | 1010.5 |
| 20260504220142 | 69 | 80 | 1.0 | 2.0 | 0.00 | 0.00 | 0.00 | 31 | 1010.3 |
| 20260504215120 | 70 | 86 | 3.0 | 6.0 | 0.00 | 0.00 | 0.00 | 30 | 1010.5 |
| 20260504214145 | 70 | 60 | 3.0 | 7.0 | 0.00 | 0.00 | 0.00 | 30 | 1010.5 |
| 20260504213123 | 69 | 94 | 1.0 | 2.0 | 0.00 | 0.00 | 0.00 | 31 | 1010.7 |
| 20260504212119 | 71 | 94 | 1.0 | 3.0 | 0.00 | 0.00 | 0.00 | 30 | 1010.7 |
| 20260504211117 | 70 | 70 | 2.0 | 4.0 | 0.00 | 0.00 | 0.00 | 30 | 1010.8 |
| 20260504210122 | 70 | 111 | 0.0 | 3.0 | 0.00 | 0.00 | 0.00 | 31 | 1010.7 |
| 20260504205124 | 71 | 104 | 1.0 | 4.0 | 0.00 | 0.00 | 0.00 | 30 | 1010.6 |
| 20260504204125 | 72 | 94 | 2.0 | 3.0 | 0.00 | 0.00 | 0.00 | 28 | 1010.6 |
| 20260504203115 | 70 | 98 | 1.0 | 4.0 | 0.00 | 0.00 | 0.00 | 29 | 1010.8 |
| 20260504202121 | 70 | 89 | 2.0 | 4.0 | 0.00 | 0.00 | 0.00 | 30 | 1010.8 |
| 20260504201116 | 70 | 350 | 5.0 | 8.0 | 0.00 | 0.00 | 0.00 | 30 | 1011.0 |
| 20260504200124 | 70 | 90 | 1.0 | 2.0 | 0.00 | 0.00 | 0.00 | 30 | 1011.0 |
| 20260504195125 | 70 | 5 | 7.0 | 15.0 | 0.00 | 0.00 | 0.00 | 30 | 1011.0 |
| 20260504194115 | 70 | 104 | 2.0 | 7.0 | 0.00 | 0.00 | 0.00 | 31 | 1011.0 |
| 20260504193115 | 69 | 86 | 2.0 | 4.0 | 0.00 | 0.00 | 0.00 | 31 | 1011.0 |
| 20260504192136 | 69 | 98 | 3.0 | 6.0 | 0.00 | 0.00 | 0.00 | 31 | 1011.1 |
| 20260504191119 | 69 | 96 | 1.0 | 2.0 | 0.00 | 0.00 | 0.00 | 32 | 1011.0 |
| 20260504190125 | 69 | 96 | 2.0 | 3.0 | 0.00 | 0.00 | 0.00 | 31 | 1011.2 |
| 20260504185115 | 69 | 85 | 2.0 | 9.0 | 0.00 | 0.00 | 0.00 | 30 | 1011.2 |
| 20260504184116 | 69 | 69 | 2.0 | 8.0 | 0.00 | 0.00 | 0.00 | 31 | 1011.1 |
| 20260504183144 | 68 | 93 | 2.0 | 6.0 | 0.00 | 0.00 | 0.00 | 30 | 1011.5 |
| 20260504182119 | 68 | 58 | 3.0 | 8.0 | 0.00 | 0.00 | 0.00 | 31 | 1011.4 |
| 20260504181118 | 68 | 85 | 1.0 | 7.0 | 0.00 | 0.00 | 0.00 | 32 | 1011.6 |
| 20260504180207 | 67 | 52 | 4.0 | 8.0 | 0.00 | 0.00 | 0.00 | 31 | 1011.7 |
| 20260504175117 | 67 | 69 | 3.0 | 7.0 | 0.00 | 0.00 | 0.00 | 31 | 1011.7 |
| 20260504174117 | 68 | 57 | 4.0 | 8.0 | 0.00 | 0.00 | 0.00 | 31 | 1011.5 |
| 20260504173139 | 68 | 145 | 1.0 | 10.0 | 0.00 | 0.00 | 0.00 | 32 | 1011.6 |
| 20260504172123 | 68 | 28 | 4.0 | 9.0 | 0.00 | 0.00 | 0.00 | 30 | 1011.9 |
| 20260504171121 | 67 | 126 | 1.0 | 6.0 | 0.00 | 0.00 | 0.00 | 33 | 1012.0 |
| 20260504170127 | 67 | 53 | 5.0 | 9.0 | 0.00 | 0.00 | 0.00 | 31 | 1012.0 |
| 20260504160128 | 64 | 34 | 5.0 | 10.0 | 0.00 | 0.00 | 0.00 | 30 | 1012.7 |
| 20260504151123 | 63 | 96 | 1.0 | 4.0 | 0.00 | 0.00 | 0.00 | 34 | 1013.1 |
| 20260504150129 | 62 | 99 | 0.0 | 2.0 | 0.00 | 0.00 | 0.00 | 35 | 1013.2 |
| 20260504141124 | 60 | 138 | 3.0 | 6.0 | 0.00 | 0.00 | 0.00 | 36 | 1013.7 |
| 20260504140130 | 60 | 64 | 1.0 | 6.0 | 0.00 | 0.00 | 0.00 | 36 | 1013.7 |
| 20260504130132 | 56 | 82 | 1.0 | 4.0 | 0.00 | 0.00 | 0.00 | 42 | 1014.1 |
| 20260504120117 | 51 | 89 | 2.0 | 3.0 | 0.00 | 0.00 | 0.00 | 50 | 1014.4 |
| 20260504110123 | 46 | 104 | 0.0 | 1.0 | 0.00 | 0.00 | 0.00 | 58 | 1014.7 |
| 20260504100126 | 43 | 99 | 0.0 | 1.0 | 0.00 | 0.00 | 0.00 | 62 | 1013.9 |
| 20260504090126 | 43 | 0.0 | 0.0 | 0.00 | 0.00 | 0.00 | 62 | 1013.6 |